Regional Weather Roundup
Issued by NWS Newport/Morehead, NC

Home | Current Version | Previous Version | Text Only | Print | Product List | Glossary On
Versions: 1 2 3 4 5 6 7 8 9 10 11 12 13 14 15 16 17 18 19 20 21 22 23 24 25 26 27 28 29 30 31 32 33 34 35 36 37 38 39 40 41 42 43 44 45 46 47 48 49 50
000
ASUS42 KMHX 290225
RWRMHX
WEATHER ROUNDUP FOR EASTERN NORTH CAROLINA
NATIONAL WEATHER SERVICE NEWPORT/MOREHEAD CITY NC
1000 PM EDT TUE MAR 28 2017

NOTE: "FAIR" INDICATES FEW OR NO CLOUDS BELOW 12,000 FEET
WITH NO SIGNIFICANT WEATHER AND/OR OBSTRUCTIONS TO VISIBILITY

NCZ015>017-031-032-045>047-102-103-290300-
NORTH COAST

CITY           SKY/WX    TMP DP  RH WIND       PRES   REMARKS
EDENTON        NOT AVBL
ELIZABETH CITY CLEAR     61  58  90 SW6       29.90R
KITTY HAWK     NOT AVBL
MANTEO         CLEAR     60  59  97 CALM      29.90S

$$

NCZ045>047-081-094-103-104-290300-
CENTRAL COAST

CITY           SKY/WX    TMP DP  RH WIND       PRES   REMARKS
FRISCO         CLEAR     65  61  87 W12       29.90S FOG

$$

NCZ095-097-098-100-101-290300-
SOUTHERN COAST

CITY           SKY/WX    TMP DP  RH WIND       PRES   REMARKS
BEAUFORT       CLEAR     64  63  96 SW6       29.92R
CEDAR ISLAND   NOT AVBL
JACKSONVILLE   PTCLDY    63  63 100 CALM      29.91S
PINEY ISLAND   CLEAR    N/A N/A N/A SW7       29.91F
WILMINGTON     PTCLDY    68  60  75 CALM      29.92S


$$

NCZ011>013-027>030-043-044-078>080-089-090>093-098-290300-
COASTAL PLAIN

CITY           SKY/WX    TMP DP  RH WIND       PRES   REMARKS
AHOSKIE        NOT AVBL
CLINTON        PTCLDY    64  63  96 CALM      29.93R
ELIZABETHTOWN  CLEAR     66  62  87 CALM      29.92R
GOLDSBORO      CLEAR     62  62 100 E5        29.91R
GREENVILLE     PTCLDY    63  59  88 CALM      29.94S
HAVELOCK       CLEAR     61  59  93 S3          N/A
KENANSVILLE    PTCLDY    63  63 100 NE3       29.94R
KINSTON        CLEAR     61  61 100 CALM      29.94R
NEW BERN       FOG       58  58 100 NW3       29.94R VSB 1/4
RICHLANDS      CLOUDY    63  63 100 CALM      29.93R
ROCKY MOUNT    CLOUDY    59  59 100 CALM      29.92R
WASHINGTON     MOCLDY    61  59  94 CALM      29.93R
WHITEVILLE     MOCLDY    69  63  81 CALM      29.92R

$$

AMZ130-135-150-152-154-156-158-170-250-252-270-ANZ085-086-088-633-658-670-290300-
MARINE OBSERVATIONS

STATION/POSITION TIME  TEMP    WIND        PRES    WAVE   SWELL
                       AIR SEA DIR/SP/G            HT/PER HT/PER
                 (UTC) (F)     (DEG/KT/KT) (MB)    (FT/S) (FT/S)
CHESAPEAKE LIGHT NOT AVBL
64 E VA BEACH    0150   55 49  200/  6/  8 1012.1    4/ 9   3/ 9
DUCK             0154   63 47  240/  7/  9 1011.6
2 E DUCK         0200      50                N/A     3/ 9   2/11
OREGON INLET     0154   60 61  230/  7/  9 1012.0
13E OREGON INLT  0148      53                N/A     4/10   3/10
HATTERAS CG      0154   64 63  230/  9/ 12 1012.4
DIAMOND BUOY     0150   71 75  250/ 21/ 25 1012.1    5/10   3/10
CAPE LOOKOUT     0200   65     230/  7/ 10 1012.7
BEAUFORT LAB     0154   63 62  230/  3/  5 1012.1
30 SE NEW RVR IN 0208   66     280/ 12/ 17 1013.6
30 SE NEW RVR IN 0213      64                N/A     6/10   3/11
27 SE WRIGHTSVLE 0208   66 70  340/  8/ 12 1013.4
5 SE WRIGHTSVLE  0208   64 58  340/  2/ 10 1013.3
225 S CAPE HAT   0150   70 73  210/ 10/ 12 1016.2    6/10   7/10
41 SE CHARLESTON 0150   70 71  240/ 12/ 14 1013.8    5/11   3/11

$$



USA.gov is the U.S. government's official web portal to all federal, state and local government web resources and services.